Location: Larrial
(48.2758°N, 4.5331°W)
Time: 10:25:56
(UTC+00:00)

XW-2F - Pass Details

Date: 30 November 2021
Orbit: 495 x 515 km, 97.5° (Epoch: 15 January)

Event Time Altitude Azimuth Distance (km) Brightness Sun altitude
Rises 17:24:25 0° 161° (SSE) 2,594 ? -9.4°
Reaches altitude 10° 17:26:29 10° 159° (SSE) 1,718 ? -9.7°
Maximum altitude 17:30:10 73° 76° (ENE) 539 ? -10.2°
Drops below altitude 10° 17:33:55 10° 351° (N) 1,746 ? -10.8°
Sets 17:36:02 0° 349° (N) 2,641 ? -11.2°
